Weather History for Ithaca, NY

Change the Weather History Date:

Tuesday, April 22, 2014

  Actual Average Record
Temperature  
Mean Temperature 51 °F -  
Max Temperature 61 °F 59 °F 85 °F (1976)
Min Temperature 41 °F 37 °F -2 °F (2011)
Degree Days  
Heating Degree Days 14    
Growing Degree Days 1 (Base 50)    
Moisture  
Dew Point 42 °F    
Average Humidity 66    
Maximum Humidity 90    
Minimum Humidity 36    
Precipitation  
Precipitation 0.13 in - - ()
Sea Level Pressure  
Sea Level Pressure 29.63 in    
Wind  
Wind Speed 8 mph (SSW)    
Max Wind Speed 18 mph    
Max Gust Speed 24 mph    
Visibility 10 miles    
Events Rain    
Averages and records for this station are not official NWS values.
T = Trace of Precipitation, MM = Missing Value Source: NWS Daily Summary

Daily Weather History Graph

Daily Weather History Graph

Search for Another Location

Airport:

Trip Planner

Search our weather history database for the weather conditions in past years. The results will help you decide how hot, cold, wet, or windy it might be!

Date:

Astronomy

Apr. 22, 2014 Rise Set
Actual Time 6:13 AM EDT 7:55 PM EDT
Civil Twilight 5:43 AM EDT 8:25 PM EDT
Nautical Twilight 5:07 AM EDT 9:01 PM EDT
Astronomical Twilight 4:29 AM EDT 9:40 PM EDT
Moon 2:09 AM EDT (4/22) 12:46 PM EDT (4/22)
Length of Visible Light 14h 41m
Length of Day
13h 41m
Last Quarter, 46% of the Moon is Illuminated
Apr 22
Last Quarter
Apr 29
New
May 6
First Quarter
May 14
Full
May 21
Last Quarter

Hourly Weather History & Observations

Time (EDT) Temp. Windchill Dew Point Humidity Pressure Visibility Wind Dir Wind Speed Gust Speed Precip Events Conditions
12:56 AM 57.9 °F - 32.0 °F 37% 29.76 in 10.0 mi South 5.8 mph - N/A   Clear
1:56 AM 59.0 °F - 32.0 °F 36% 29.73 in 10.0 mi South 8.1 mph - N/A   Clear
2:56 AM 57.9 °F - 32.9 °F 39% 29.71 in 10.0 mi SSE 8.1 mph - N/A   Clear
3:56 AM 57.9 °F - 32.0 °F 37% 29.69 in 10.0 mi SSE 6.9 mph - N/A   Partly Cloudy
4:56 AM 57.9 °F - 32.0 °F 37% 29.67 in 10.0 mi South 8.1 mph - N/A   Mostly Cloudy
5:56 AM 57.9 °F - 32.0 °F 37% 29.65 in 10.0 mi SSE 4.6 mph - N/A   Overcast
6:14 AM 57.2 °F - 32.0 °F 38% 29.66 in 10.0 mi South 6.9 mph - N/A   Overcast
6:56 AM 59.0 °F - 32.9 °F 37% 29.66 in 10.0 mi South 5.8 mph - N/A   Overcast
7:56 AM 55.9 °F - 39.9 °F 55% 29.65 in 10.0 mi SSE 4.6 mph - 0.00 in Rain Light Rain
8:56 AM 57.9 °F - 38.8 °F 49% 29.63 in 10.0 mi South 4.6 mph - 0.00 in   Overcast
9:56 AM 56.8 °F - 45.0 °F 64% 29.61 in 10.0 mi SSE 4.6 mph - 0.00 in Rain Light Rain
10:56 AM 54.0 °F - 48.9 °F 83% 29.60 in 7.0 mi South 6.9 mph - 0.00 in Rain Light Rain
11:56 AM 52.9 °F - 50.0 °F 90% 29.59 in 10.0 mi SSE 5.8 mph - 0.00 in Rain Light Rain
12:56 PM 54.9 °F - 50.9 °F 86% 29.57 in 10.0 mi South 9.2 mph - 0.00 in   Overcast
1:56 PM 56.8 °F - 52.0 °F 84% 29.55 in 10.0 mi SSW 8.1 mph - N/A   Overcast
2:56 PM 59.9 °F - 52.9 °F 78% 29.54 in 10.0 mi SW 8.1 mph - N/A   Overcast
3:56 PM 56.8 °F - 54.0 °F 90% 29.54 in 10.0 mi North 4.6 mph - 0.13 in Rain Light Rain Showers
4:56 PM 59.9 °F - 52.0 °F 75% 29.54 in 10.0 mi NNW 6.9 mph - 0.00 in   Mostly Cloudy
5:56 PM 57.9 °F - 52.0 °F 81% 29.54 in 10.0 mi NNW 13.8 mph 20.7 mph N/A   Mostly Cloudy
6:56 PM 55.9 °F - 50.9 °F 83% 29.56 in 10.0 mi NNW 11.5 mph 17.3 mph N/A   Overcast
7:56 PM 52.0 °F - 47.8 °F 86% 29.60 in 9.0 mi NNW 13.8 mph - N/A   Overcast
8:33 PM 50.0 °F - 44.6 °F 82% 29.61 in 10.0 mi NW 18.4 mph 24.2 mph N/A   Overcast
8:56 PM 48.9 °F - 43.9 °F 83% 29.62 in 10.0 mi NNW 13.8 mph - N/A   Overcast
9:56 PM 45.9 °F 39.1 °F 41.9 °F 86% 29.65 in 10.0 mi NW 16.1 mph - N/A   Overcast
10:56 PM 43.9 °F 37.2 °F 37.9 °F 80% 29.67 in 10.0 mi NW 13.8 mph - N/A   Overcast
11:56 PM 41.9 °F 36.3 °F 36.0 °F 79% 29.67 in 10.0 mi WNW 9.2 mph - N/A   Overcast